Terminal Aerodrome Forecast
Issued by NWS

Home | Current Version | Previous Version | Text Only | Print | Product List | Glossary On
Versions: 1 2 3 4 5 6 7 8 9 10 11 12 13 14 15 16 17 18 19 20 21 22 23
000
FTUS45 KRIW 120529
TAFPNA
TAF
KPNA 120529Z 1206/1306 29006KT P6SM BKN100
     FM121500 VRB05KT P6SM SCT150 BKN250
     FM130100 30006KT P6SM FEW150 BKN250
      AMD LTD TO CLD VIS AND WIND=

USA.gov is the U.S. government's official web portal to all federal, state and local government web resources and services.